• Join FlightAware (Why Join?)
  • Login
  • US Flag GB Flag 
11:07 EDT


 

Airport Tracker/Info


-or-


 

Live Flight TrackerFlight Track Log ✈ EJA929 ✈ 09-Jul-2013 ✈ KPBI - KPNE

Flight Track Log - Related Links

Times and Time Zones

All times are in EDT time to prevent confusion due to time zone crossing. See the EJA929 flight status page for this flight to view local times or setup timezone preferences in your user account.

Time Position Orientation Groundspeed Altitude Reporting Facility
EDT Latitude Longitude Course Direction KTS MPH feet Rate Location/Type
09:49 26.7306 -79.9547 42° Northeast 252 290 7,200  Level Miami Center
09:50 26.7775 -79.9050 43° Northeast 252 290 9,700 2,100 Climbing Miami Center
09:51 26.8353 -79.8414 44° Northeast 270 311 11,500 1,620 Climbing Miami Center
09:52 26.8892 -79.7611 53° Northeast 299 344 13,000 1,020 Climbing Miami Center
09:53 26.9514 -79.6694 53° Northeast 335 386 13,600 1,080 Climbing Miami Center
09:54 27.1047 -79.4066 48° Northeast  Level FlightAware Approximate
09:54 27.0117 -79.5775 54° Northeast 354 407 15,200  Level Miami Center
09:55 27.1772 -79.2895 42° Northeast  Level FlightAware Approximate
09:55 27.0719 -79.4833 54° Northeast 360 414 16,400  Level Miami Center
09:56 27.1386 -79.3797 54° Northeast 377 434 17,600 1,080 Climbing Miami Center
09:57 27.1986 -79.2853 54° Northeast 382 440 18,600 1,080 Climbing Miami Center
09:58 27.2628 -79.1839 55° Northeast 382 440 19,800 1,200 Climbing Miami Center
09:59 27.3292 -79.0825 54° Northeast 388 447 21,000 1,200 Climbing Miami Center
10:00 27.4036 -78.9925 47° Northeast 388 447 22,200 1,140 Climbing Miami Center
10:01 27.5192 -78.9572 15° North 388 447 23,300 1,140 Climbing Miami Center
10:02 27.6364 -78.9383 North 396 456 24,500 1,200 Climbing Miami Center
10:03 27.7514 -78.9144 10° North 412 474 25,800 1,380 Climbing Miami Center
10:04 27.8750 -78.8908 10° North 434 499 27,300 1,500 Climbing Miami Center
10:05 27.9964 -78.8744 North 434 499 28,800 1,500 Climbing Miami Center
10:06 28.1136 -78.8506 10° North 429 494 30,300 1,500 Climbing Miami Center
10:07 28.2350 -78.8197 13° North 434 499 31,800 1,500 Climbing Miami Center
10:08 28.3586 -78.7911 12° North 434 499 33,300 1,500 Climbing Miami Center
10:09 28.4822 -78.7603 12° North 441 507 34,800 1,500 Climbing Miami Center
10:10 28.6017 -78.7244 15° North 448 516 36,300 1,500 Climbing Miami Center
10:11 28.7333 -78.6933 12° North 453 521 37,800 1,500 Climbing Miami Center
10:12 28.8653 -78.6672 10° North 466 536 39,300 1,500 Climbing Miami Center
10:13 28.9908 -78.6408 10° North 472 543 40,800 840 Climbing Miami Center
10:14 29.1225 -78.6261 North 467 537 41,000 60 Climbing Miami Center
10:15 29.2583 -78.6117 North 470 541 41,000  Level Miami Center
10:16 29.4003 -78.5856 North 472 543 41,000  Level Miami Center
10:17 29.5300 -78.5589 10° North 488 562 41,000  Level Miami Center
10:19 29.7114 -78.5194 11° North 505 581 41,000  Level Jacksonville Center
10:20 29.8439 -78.4894 11° North 498 573 41,000  Level Jacksonville Center
10:21 29.9786 -78.4594 11° North 498 573 41,000  Level Jacksonville Center
10:22 30.1133 -78.4314 10° North 498 573 41,000  Level Jacksonville Center
10:23 30.2606 -78.4006 10° North 493 567 41,100  Climbing Jacksonville Center
10:24 30.3992 -78.3725 10° North 488 562 41,100  Level Jacksonville Center
10:25 30.5319 -78.3444 10° North 488 562 41,100 -60 Level Jacksonville Center
10:26 30.6603 -78.3142 11° North 489 563 41,000  Descending Jacksonville Center
10:27 30.7969 -78.2883 North 482 555 41,100  Climbing Jacksonville Center
10:28 30.9339 -78.2597 10° North 488 562 41,100 -60 Level Jacksonville Center
10:29 31.0600 -78.2269 13° North 480 552 41,000 -60 Descending Jacksonville Center
10:30 31.1967 -78.2031 North 480 552 41,000  Level Jacksonville Center
10:31 31.3250 -78.1725 11° North 487 560 41,000  Level Jacksonville Center
10:32 31.4594 -78.1364 13° North 482 555 41,000  Level Jacksonville Center
10:33 31.5942 -78.1125 North 482 555 41,000  Level Jacksonville Center
10:34 31.7289 -78.0858 10° North 482 555 41,000  Level Jacksonville Center
10:35 31.8633 -78.0519 12° North 482 555 41,000  Level Jacksonville Center
10:36 31.9956 -78.0231 10° North 482 555 41,000  Level Jacksonville Center
10:37 32.1303 -77.9964 10° North 487 560 41,000  Level Jacksonville Center
10:38 32.2650 -77.9694 10° North 487 560 41,000 300 Level Jacksonville Center
10:39 32.3975 -77.9400 11° North 482 555 41,700 780 Climbing Jacksonville Center
10:40 32.5256 -77.9111 11° North 482 555 42,600 900 Climbing Jacksonville Center
10:41 32.6497 -77.8819 11° North 471 542 43,600 900 Climbing Jacksonville Center
10:42 32.7719 -77.8578 North 457 526 44,500 660 Climbing Jacksonville Center
10:43 32.8917 -77.8289 11° North 444 511 45,000 240 Climbing Jacksonville Center
10:44 33.0117 -77.8022 11° North 444 511 45,000  Level Jacksonville Center
10:45 33.1358 -77.7756 10° North 444 511 45,000  Level Jacksonville Center
10:46 33.3414 -77.7292 11° North 462 532 45,000  Level Washington Center
10:47 33.4689 -77.7028 10° North 468 539 45,000  Level Washington Center
10:48 33.5967 -77.6736 11° North 468 539 45,000  Level Washington Center
10:49 33.7244 -77.6417 12° North 468 539 45,000 -240 Level Washington Center
10:50 33.8544 -77.6125 11° North 468 539 44,600 -720 Descending Washington Center
10:51 33.9842 -77.5831 11° North 468 539 43,600 -1,020 Descending Washington Center
10:52 34.1014 -77.5558 11° North 468 539 42,600 -1,020 Descending Washington Center
10:53 34.2314 -77.5286 10° North 468 539 41,600 -1,080 Descending Washington Center
10:54 34.3633 -77.4992 10° North 473 544 40,500 -1,260 Descending Washington Center
10:55 34.4869 -77.4517 18° North 473 544 39,200 -780 Descending Washington Center
10:56 34.6092 -77.3861 24° Northeast 467 537 39,000 -120 Descending Washington Center
10:57 34.7331 -77.3206 23° Northeast 473 544 39,000 -60 Level Washington Center
10:58 34.8656 -77.2475 24° Northeast 479 551 38,900 -660 Descending Washington Center
10:59 34.9875 -77.1817 24° Northeast 479 551 37,700 -960 Descending Washington Center
11:00 35.1136 -77.1131 24° Northeast 484 557 37,000 -1,200 Descending Washington Center
11:01 35.2397 -77.0467 23° Northeast 490 564 35,400 -1,740 Descending Washington Center
11:02 35.3697 -76.9753 24° Northeast 485 558 33,600 -1,260 Descending Washington Center
11:03 35.5019 -76.9033 24° Northeast 492 566 33,000 -300 Descending Washington Center
11:05 35.6322 -76.8342 23° Northeast 503 579 33,000  Level Washington Center
11:06 35.7728 -76.7542 25° Northeast 503 579 33,000  Level Washington Center
11:07 35.9047 -76.6844 23° Northeast 503 579 33,000 -60 Level Washington Center
11:08 36.0347 -76.6117 24° Northeast 503 579 32,900 -840 Descending Washington Center
11:09 36.1669 -76.5414 23° Northeast 508 585 31,400 -1,620 Descending Washington Center
11:10 36.3011 -76.4656 24° Northeast 508 585 29,700 -1,200 Descending Washington Center
11:11 36.4372 -76.3897 24° Northeast 513 590 29,000 -360 Descending Washington Center
11:12 36.5669 -76.3186 24° Northeast 518 596 29,000  Level Washington Center
11:13 36.7114 -76.2344 25° Northeast 518 596 29,000  Level Washington Center
11:14 36.8411 -76.1628 24° Northeast 518 596 29,000  Level Washington Center
11:15 36.9728 -76.0883 24° Northeast 512 589 29,000  Level Washington Center
11:16 37.1044 -76.0164 24° Northeast 517 595 29,000  Level Washington Center
11:17 37.2342 -75.9439 24° Northeast 512 589 29,000 -660 Level Washington Center
11:18 37.3658 -75.8661 25° Northeast 512 589 27,700 -1,380 Descending Washington Center
11:19 37.4972 -75.7961 23° Northeast 512 589 26,300 -1,200 Descending Washington Center
11:20 37.6017 -75.7333 25° Northeast 512 589 25,400 -660 Descending Washington Center
11:21 37.7539 -75.6444 25° Northeast 505 581 25,000 -240 Descending Washington Center
11:22 37.8792 -75.5761 23° Northeast 500 575 25,000  Level Washington Center
11:23 38.0022 -75.5022 25° Northeast 495 570 25,000 -540 Level Washington Center
11:24 38.1250 -75.4308 25° Northeast 490 564 24,000 -1,380 Descending Washington Center
11:25 38.2481 -75.3511 27° Northeast 485 558 22,300 -1,680 Descending Washington Center
11:26 38.3519 -75.2819 28° Northeast 479 551 20,700 -2,100 Descending Washington Center
11:27 38.4706 -75.2019 28° Northeast 468 539 18,100 -2,700 Descending Washington Center
11:28 38.5831 -75.1322 26° Northeast 468 539 15,400 -1,560 Descending Washington Center
11:29 38.6889 -75.0597 28° Northeast 446 513 15,000 -240 Descending Washington Center
11:30 38.7950 -74.9950 25° Northeast 427 491 15,000  Level Washington Center
11:31 38.9008 -74.9275 26° Northeast 427 491 15,000  Level Washington Center
11:32 39.0089 -74.8597 26° Northeast 427 491 15,000 -240 Level Washington Center
11:33 39.1192 -74.8158 17° North 422 486 14,600 -1,020 Descending Washington Center
11:35 39.3833 -74.9167 344° North 335 386 11,500 -1,320 Descending Philadelphia TRACON
11:36 39.4667 -74.9500 343° North 311 358 10,100 -900 Descending Philadelphia TRACON
11:37 39.5500 -74.9667 351° North 291 335 9,800 -1,020 Descending Philadelphia TRACON
11:38 39.6333 -74.9667 360° North 278 320 8,100 -1,680 Descending Philadelphia TRACON
11:39 39.7000 -74.9500 11° North 270 311 6,500 -1,560 Descending Philadelphia TRACON
11:40 39.7667 -74.9333 11° North 270 311 5,000 -1,260 Descending Philadelphia TRACON
11:41 39.8500 -74.9167 North 255 293 4,000 -540 Descending Philadelphia TRACON
11:42 39.9000 -74.9000 14° North 224 258 4,000 -480 Level Philadelphia TRACON
11:43 39.9667 -74.9000 360° North 210 242 3,100 -900 Descending Philadelphia TRACON